Weather History for K3A1 - March, 2013

Change the Weather History Date:

Saturday, March 9, 2013

  Actual Average (KHSV) Record (KHSV)
Temperature  
Mean Temperature 50 °F 52 °F  
Max Temperature 64 °F 63 °F 84 °F (1925)
Min Temperature 36 °F 41 °F 15 °F (1996)
Degree Days  
Heating Degree Days 15 14  
Month to date heating degree days 132  
Since 1 July heating degree days 2584  
Cooling Degree Days 0 0  
Month to date cooling degree days 0  
Year to date cooling degree days 1  
Moisture  
Dew Point 31 °F    
Average Humidity 43    
Maximum Humidity 82    
Minimum Humidity 30    
Precipitation  
Precipitation 0.00 in 0.17 in 2.60 in (1905)
Month to date precipitation 1.50  
Year to date precipitation 11.23  
Snow  
Snow 0.00 in - - ()
Month to date snowfall  
Since 1 July snowfall  
Snow Depth -    
Sea Level Pressure  
Sea Level Pressure 30.19 in    
Wind  
Wind Speed 5 mph (SE)    
Max Wind Speed 12 mph    
Max Gust Speed 18 mph    
Visibility 10 miles    
Events      
T = Trace of Precipitation, MM = Missing Value Source: NWS Daily Summary

Daily Weather History Graph

Daily Weather History Graph

Search for Another Location

Airport or City:

Trip Planner

Search our weather history database for the weather conditions in past years. The results will help you decide how hot, cold, wet, or windy it might be!

Date:

Astronomy

Mar. 09, 2013 Rise Set
Actual Time 6:05 AM CST 5:50 PM CST
Civil Twilight 5:40 AM CST 6:15 PM CST
Nautical Twilight 5:11 AM CST 6:44 PM CST
Astronomical Twilight 4:42 AM CST 7:13 PM CST
Moon 4:24 AM CST (3/9) 3:55 PM CST (3/9)
Length of Visible Light 12h 34m
Length of Day
11h 44m
Waning Crescent, 5% of the Moon is Illuminated
Mar 9
Waning Crescent
Mar 11
New
Mar 19
First Quarter
Mar 27
Full
Apr 2
Last Quarter

Hourly Weather History & Observations

Time (CST) Temp. Windchill Dew Point Humidity Pressure Visibility Wind Dir Wind Speed Gust Speed Precip Events Conditions
12:15 AM 36.5 °F - 30.4 °F 78% 30.24 in 10.0 mi Calm Calm - N/A   Clear
12:35 AM 36.0 °F - 31.1 °F 82% 30.25 in 10.0 mi Calm Calm - N/A   Clear
12:55 AM 36.1 °F - 30.7 °F 81% 30.23 in 10.0 mi Calm Calm - N/A   Clear
1:15 AM 36.3 °F - 30.0 °F 78% 30.23 in 10.0 mi Calm Calm - N/A   Clear
1:35 AM 41.0 °F - 26.4 °F 56% 30.23 in 10.0 mi Calm Calm - N/A   Clear
1:55 AM 40.6 °F 38.6 °F 27.0 °F 58% 30.23 in 10.0 mi East 3.5 mph - N/A   Clear
2:15 AM 43.9 °F 42.3 °F 24.4 °F 46% 30.22 in 10.0 mi East 3.5 mph - N/A   Clear
2:35 AM 45.0 °F - 23.7 °F 43% 30.21 in 10.0 mi Calm Calm - N/A   Clear
2:55 AM 44.6 °F 43.1 °F 23.7 °F 44% 30.22 in 10.0 mi East 3.5 mph - N/A   Clear
3:15 AM 44.4 °F 41.2 °F 24.4 °F 45% 30.21 in 10.0 mi East 5.8 mph - N/A   Clear
3:35 AM 44.6 °F 42.2 °F 24.4 °F 45% 30.22 in 10.0 mi East 4.6 mph - N/A   Clear
3:55 AM 44.4 °F 41.2 °F 24.6 °F 46% 30.22 in 10.0 mi East 5.8 mph - N/A   Clear
4:15 AM 44.2 °F 41.0 °F 25.2 °F 47% 30.22 in 10.0 mi ESE 5.8 mph - N/A   Clear
4:35 AM 44.1 °F 40.1 °F 25.7 °F 49% 30.23 in 10.0 mi ESE 6.9 mph - N/A   Clear
4:55 AM 43.7 °F 40.3 °F 25.9 °F 50% 30.23 in 10.0 mi ESE 5.8 mph - N/A   Clear
5:15 AM 43.5 °F 40.9 °F 26.1 °F 50% 30.23 in 10.0 mi East 4.6 mph - N/A   Clear
5:35 AM 43.0 °F 41.3 °F 26.1 °F 51% 30.24 in 10.0 mi East 3.5 mph - N/A   Clear
5:55 AM 42.6 °F 39.0 °F 26.1 °F 52% 30.24 in 10.0 mi East 5.8 mph - N/A   Clear
6:15 AM 42.3 °F 39.4 °F 26.1 °F 53% 30.24 in 10.0 mi East 4.6 mph - N/A   Clear
6:35 AM 42.1 °F 40.2 °F 25.9 °F 53% 30.24 in 10.0 mi East 3.5 mph - N/A   Clear
6:55 AM 43.2 °F 38.4 °F 25.9 °F 51% 30.23 in 10.0 mi East 8.1 mph - N/A   Clear
7:15 AM 45.0 °F 40.6 °F 26.4 °F 48% 30.24 in 10.0 mi ESE 8.1 mph - N/A   Clear
7:35 AM 46.2 °F 43.3 °F 26.6 °F 46% 30.26 in 10.0 mi ESE 5.8 mph - N/A   Clear
7:55 AM 46.0 °F 43.9 °F 26.8 °F 47% 30.26 in 10.0 mi ESE 4.6 mph - N/A   Clear
8:15 AM 47.1 °F - 27.3 °F 46% 30.25 in 10.0 mi ESE 10.4 mph - N/A   Clear
8:35 AM 47.8 °F - 27.7 °F 46% 30.25 in 10.0 mi ESE 6.9 mph - N/A   Clear
8:55 AM 48.6 °F - 27.5 °F 44% 30.26 in 10.0 mi ESE 5.8 mph - N/A   Clear
9:15 AM 48.7 °F - 27.7 °F 44% 30.25 in 10.0 mi ESE 8.1 mph - N/A   Clear
9:35 AM 49.1 °F - 28.2 °F 44% 30.23 in 10.0 mi ESE 10.4 mph - N/A   Clear
9:55 AM 50.0 °F - 28.6 °F 44% 30.23 in 10.0 mi ESE 8.1 mph - N/A   Clear
10:15 AM 52.0 °F - 28.9 °F 41% 30.26 in 10.0 mi ESE 4.6 mph - N/A   Clear
10:35 AM 54.7 °F - 29.3 °F 38% 30.26 in 10.0 mi SSE 9.2 mph - N/A   Clear
10:55 AM 57.7 °F - 30.2 °F 35% 30.25 in 10.0 mi SSE 6.9 mph - N/A   Clear
11:15 AM 59.9 °F - 30.7 °F 33% 30.24 in 10.0 mi South 6.9 mph - N/A   Clear
11:35 AM 62.1 °F - 31.5 °F 32% 30.24 in 10.0 mi SSE 10.4 mph - N/A   Clear
11:55 AM 61.3 °F - 31.1 °F 32% 30.24 in 10.0 mi SSW 11.5 mph 16.1 mph N/A   Clear
12:15 PM 62.4 °F - 31.5 °F 31% 30.23 in 10.0 mi South 10.4 mph - N/A   Clear
12:35 PM 63.3 °F - 31.8 °F 31% 30.22 in 10.0 mi South 10.4 mph - N/A   Clear
12:55 PM 63.9 °F - 32.0 °F 30% 30.20 in 10.0 mi SSE 8.1 mph - N/A   Clear
1:15 PM 63.1 °F - 32.2 °F 31% 30.19 in 10.0 mi SE 9.2 mph - N/A   Clear
1:35 PM 63.5 °F - 32.2 °F 31% 30.18 in 10.0 mi SE 11.5 mph - N/A   Clear
1:55 PM 63.7 °F - 32.2 °F 31% 30.17 in 10.0 mi SSE 11.5 mph 17.3 mph N/A   Clear
2:15 PM 64.4 °F - 32.9 °F 31% 30.16 in 10.0 mi SE 11.5 mph - N/A   Clear
2:35 PM 64.6 °F - 33.3 °F 31% 30.16 in 10.0 mi South 8.1 mph - N/A   Clear
2:55 PM 64.2 °F - 33.3 °F 32% 30.17 in 10.0 mi South 5.8 mph - N/A   Clear
3:15 PM 64.2 °F - 33.1 °F 31% 30.16 in 10.0 mi SE 6.9 mph 18.4 mph N/A   Clear
3:35 PM 64.4 °F - 33.4 °F 32% 30.16 in 10.0 mi South 8.1 mph - N/A   Clear
3:55 PM 64.2 °F - 33.6 °F 32% 30.15 in 10.0 mi SSE 8.1 mph - N/A   Clear
4:15 PM 64.2 °F - 34.2 °F 33% 30.14 in 10.0 mi SE 5.8 mph - N/A   Clear
4:35 PM 64.8 °F - 35.2 °F 33% 30.14 in 10.0 mi SE 9.2 mph - N/A   Clear
4:55 PM 63.7 °F - 35.1 °F 34% 30.13 in 10.0 mi SE 4.6 mph - N/A   Clear
5:15 PM 62.4 °F - 35.2 °F 36% 30.13 in 10.0 mi SE 5.8 mph - N/A   Clear
5:35 PM 61.3 °F - 35.8 °F 39% 30.14 in 10.0 mi ESE 4.6 mph - N/A   Clear
5:55 PM 60.1 °F - 36.5 °F 41% 30.14 in 10.0 mi ESE 6.9 mph - N/A   Clear
6:15 PM 58.8 °F - 36.5 °F 43% 30.13 in 10.0 mi ESE 5.8 mph - N/A   Clear
6:35 PM 58.1 °F - 36.7 °F 45% 30.13 in 10.0 mi SE 5.8 mph - N/A   Clear
6:55 PM 57.7 °F - 36.5 °F 45% 30.13 in 10.0 mi SE 5.8 mph - N/A   Clear
7:15 PM 57.4 °F - 36.1 °F 45% 30.12 in 10.0 mi ESE 6.9 mph - N/A   Clear
7:35 PM 56.8 °F - 35.8 °F 45% 30.12 in 10.0 mi SE 6.9 mph - N/A   Clear
7:55 PM 57.0 °F - 35.6 °F 45% 30.12 in 10.0 mi SE 5.8 mph - N/A   Clear
8:15 PM 57.7 °F - 35.2 °F 43% 30.12 in 10.0 mi SE 6.9 mph - N/A   Clear
8:35 PM 57.9 °F - 34.7 °F 42% 30.12 in 10.0 mi SE 5.8 mph - N/A   Clear
8:55 PM 57.6 °F - 34.2 °F 41% 30.11 in 10.0 mi SE 6.9 mph - N/A   Clear
9:15 PM 56.8 °F - 33.4 °F 41% 30.11 in 10.0 mi SSE 6.9 mph - N/A   Clear
9:35 PM 56.3 °F - 33.1 °F 41% 30.10 in 10.0 mi SE 6.9 mph - N/A   Clear
9:55 PM 56.5 °F - 32.9 °F 41% 30.10 in 10.0 mi SE 8.1 mph - N/A   Clear
10:15 PM 56.5 °F - 32.9 °F 41% 30.10 in 10.0 mi SE 6.9 mph - N/A   Clear
10:35 PM 56.1 °F - 32.7 °F 41% 30.10 in 10.0 mi SSE 6.9 mph - N/A   Clear
10:55 PM 55.2 °F - 32.9 °F 43% 30.10 in 10.0 mi SSE 8.1 mph - N/A   Clear
11:15 PM 55.4 °F - 32.7 °F 42% 30.11 in 10.0 mi South 10.4 mph - N/A   Clear
11:35 PM 56.3 °F - 32.2 °F 40% 30.10 in 10.0 mi SSE 9.2 mph - N/A   Clear
11:55 PM 56.7 °F - 32.0 °F 39% 30.10 in 10.0 mi SE 5.8 mph - N/A   Clear